EW5196 Weather Reports


Display with metric or nautical units.
time (UTC)temp
F
wind
direction
speed
MPH
gust
MPH
rain 1hr
in
rain 24hr
in
rain mn
in
humidity
%
barometer
mb
20260508045915 47 141 2.0 2.0 0.00 0.00 0.00 99 1014.9
20260508045413 47 138 1.0 2.0 0.00 0.00 0.00 99 1014.6
20260508044910 47 133 1.0 2.0 0.00 0.00 0.00 99 1014.7
20260508044407 47 139 2.0 2.0 0.00 0.00 0.00 99 1014.4
20260508043902 48 143 2.0 2.0 0.00 0.00 0.00 99 1014.3
20260508043400 48 143 1.0 2.0 0.00 0.00 0.00 99 1014.3
20260508042856 48 155 2.0 2.0 0.00 0.00 0.00 98 1014.4
20260508042354 48 153 2.0 2.0 0.00 0.00 0.00 99 1014.6
20260508041851 48 154 2.0 2.0 0.00 0.00 0.00 99 1014.6
20260508041347 48 148 2.0 2.0 0.00 0.00 0.00 98 1014.3
20260508040844 48 146 2.0 2.0 0.00 0.00 0.00 98 1014.1
20260508040341 49 145 2.0 2.0 0.00 0.00 0.00 99 1014.5
20260508035839 49 154 2.0 2.0 0.00 0.08 0.08 99 1014.3
20260508035336 49 140 1.0 2.0 0.00 0.08 0.08 99 1014.3
20260508034833 49 137 2.0 2.0 0.00 0.08 0.08 99 1014.3
20260508034330 49 135 2.0 2.0 0.00 0.08 0.08 98 1014.3
20260508033826 49 154 2.0 2.0 0.00 0.08 0.08 98 1014.1
20260508033325 50 137 2.0 2.0 0.00 0.08 0.08 98 1014.1
20260508032822 50 139 2.0 2.0 0.00 0.08 0.08 98 1014.2
20260508032319 50 150 2.0 3.0 0.00 0.08 0.08 99 1014.2
20260508031816 49 165 1.0 2.0 0.00 0.08 0.08 98 1014.3
20260508031313 49 152 2.0 2.0 0.00 0.08 0.08 98 1014.1
20260508030809 49 137 2.0 2.0 0.00 0.08 0.08 98 1014.3
20260508030306 49 145 2.0 2.0 0.00 0.08 0.08 98 1014.1
20260508025802 49 150 2.0 3.0 0.00 0.08 0.08 98 1014.3
20260508025300 49 149 2.0 2.0 0.00 0.08 0.08 98 1014.0
20260508024756 50 148 2.0 3.0 0.00 0.08 0.08 98 1013.8
20260508024253 50 143 2.0 2.0 0.00 0.08 0.08 98 1013.9
20260508023750 50 150 2.0 3.0 0.00 0.08 0.08 98 1013.8
20260508023247 50 155 2.0 3.0 0.00 0.08 0.08 98 1013.9
20260508022743 50 142 2.0 2.0 0.00 0.08 0.08 98 1014.0
20260508022240 50 146 2.0 2.0 0.00 0.08 0.08 98 1013.7
20260508021737 50 146 2.0 3.0 0.00 0.08 0.08 98 1013.8
20260508021232 50 140 2.0 3.0 0.00 0.08 0.08 98 1013.9
20260508020729 50 142 2.0 3.0 0.00 0.08 0.08 98 1013.8
20260508020227 50 147 2.0 2.0 0.00 0.08 0.08 98 1013.7
20260508015724 50 151 2.0 3.0 0.00 0.08 0.08 97 1013.5
20260508015221 50 151 2.0 2.0 0.00 0.08 0.08 97 1013.5
20260508014717 50 151 2.0 3.0 0.00 0.08 0.08 97 1013.5
20260508014214 50 148 2.0 2.0 0.00 0.08 0.08 97 1013.4
20260508013710 50 141 2.0 2.0 0.00 0.08 0.08 97 1013.3
20260508013206 50 149 2.0 2.0 0.00 0.08 0.08 97 1013.5
20260508012705 50 148 2.0 2.0 0.00 0.08 0.08 97 1013.5
20260508012201 50 150 2.0 2.0 0.00 0.08 0.08 97 1013.8
20260508011659 51 145 2.0 2.0 0.00 0.08 0.08 97 1013.4
20260508011156 51 149 2.0 2.0 0.00 0.08 0.08 97 1013.5
20260508010653 51 145 2.0 2.0 0.00 0.08 0.08 97 1013.5
20260508010151 51 153 2.0 3.0 0.00 0.08 0.08 97 1013.6
20260508005647 51 145 2.0 2.0 0.00 0.08 0.08 96 1013.5
20260508005139 51 149 2.0 2.0 0.00 0.08 0.08 96 1013.3
20260508004634 51 153 2.0 3.0 0.00 0.08 0.08 96 1013.3
20260508004131 52 138 2.0 2.0 0.00 0.08 0.08 96 1013.4
20260508003627 52 139 2.0 2.0 0.00 0.08 0.08 96 1013.3
20260508003125 52 153 2.0 2.0 0.00 0.08 0.08 96 1013.2
20260508002621 52 149 2.0 2.0 0.00 0.08 0.08 96 1013.1
20260508002120 52 129 2.0 2.0 0.00 0.08 0.08 96 1012.9
20260508001614 52 146 2.0 2.0 0.00 0.08 0.08 95 1013.2
20260508001111 52 142 2.0 2.0 0.00 0.08 0.08 95 1013.1
20260508000606 53 146 2.0 2.0 0.00 0.08 0.08 95 1013.2
20260508000104 53 150 2.0 2.0 0.00 0.08 0.08 94 1012.9
20260507235600 53 146 2.0 2.0 0.00 0.08 0.08 94 1012.8
20260507235058 53 146 2.0 2.0 0.00 0.08 0.08 94 1012.5
20260507234554 53 155 2.0 2.0 0.00 0.08 0.08 94 1012.4
20260507234051 53 149 2.0 2.0 0.00 0.08 0.08 94 1012.5
20260507233547 53 151 2.0 2.0 0.00 0.08 0.08 94 1012.4
20260507233046 53 151 2.0 2.0 0.00 0.08 0.08 94 1012.4
20260507232536 53 138 2.0 2.0 0.00 0.08 0.08 93 1012.5
20260507232034 53 152 2.0 2.0 0.00 0.08 0.08 93 1012.4
20260507231530 53 140 2.0 2.0 0.00 0.08 0.08 93 1012.5
20260507231028 53 137 2.0 2.0 0.00 0.08 0.08 93 1012.1
20260507230524 54 130 2.0 2.0 0.00 0.08 0.08 93 1012.1
20260507230021 54 148 2.0 2.0 0.00 0.08 0.08 92 1011.9
20260507225516 54 142 2.0 2.0 0.00 0.08 0.08 92 1012.2
20260507225012 54 143 2.0 2.0 0.00 0.08 0.08 92 1012.0
20260507224508 54 140 2.0 3.0 0.00 0.08 0.08 92 1012.1
20260507224005 54 144 2.0 2.0 0.00 0.08 0.08 92 1012.2
20260507223500 54 140 2.0 2.0 0.00 0.08 0.08 90 1012.0
20260507222958 54 141 2.0 2.0 0.00 0.08 0.08 90 1012.0
20260507222455 54 151 2.0 2.0 0.00 0.08 0.08 91 1012.1
20260507221951 54 145 2.0 3.0 0.00 0.08 0.08 92 1012.1
20260507221448 53 145 2.0 2.0 0.00 0.08 0.08 90 1011.9
20260507220945 54 149 1.0 2.0 0.00 0.08 0.08 91 1011.9
20260507220443 54 124 2.0 2.0 0.00 0.08 0.08 92 1011.9
20260507215939 54 159 1.0 2.0 0.00 0.08 0.08 92 1011.7
20260507215435 54 157 2.0 3.0 0.00 0.08 0.08 92 1011.8
20260507214932 54 132 2.0 3.0 0.00 0.08 0.08 92 1011.8
20260507214430 54 141 2.0 2.0 0.00 0.08 0.08 92 1011.7
20260507213926 54 147 2.0 2.0 0.00 0.08 0.08 93 1011.8
20260507213422 54 141 2.0 2.0 0.00 0.08 0.08 93 1011.9
20260507212919 54 139 2.0 2.0 0.00 0.08 0.08 93 1011.8
20260507212415 54 137 2.0 2.0 0.00 0.08 0.08 93 1011.5
20260507211912 54 129 2.0 2.0 0.00 0.08 0.08 93 1011.2
20260507211409 54 138 2.0 2.0 0.00 0.08 0.08 93 1011.5
20260507210906 54 141 2.0 2.0 0.00 0.08 0.08 94 1011.6
20260507210403 53 135 2.0 3.0 0.00 0.08 0.08 93 1011.6
20260507205859 53 121 2.0 2.0 0.02 0.08 0.08 92 1011.6
20260507205356 53 122 1.0 2.0 0.02 0.08 0.08 94 1011.6
20260507204852 54 128 3.0 3.0 0.02 0.07 0.07 94 1011.9
20260507204349 53 131 1.0 2.0 0.09 0.07 0.07 93 1011.9
20260507203847 54 146 1.0 2.0 0.14 0.07 0.07 92 1011.8
20260507203345 54 145 2.0 3.0 0.09 0.06 0.06 91 1012.4
20260507202840 54 149 2.0 2.0 0.07 0.05 0.05 90 1011.7
20260507202337 54 134 2.0 3.0 0.05 0.04 0.04 89 1011.7
20260507201833 55 131 3.0 3.0 0.02 0.04 0.04 87 1011.9
20260507201328 55 149 2.0 3.0 0.00 0.03 0.03 84 1011.8
20260507200825 56 146 2.0 2.0 0.02 0.03 0.03 85 1011.9
20260507200321 56 151 2.0 3.0 0.02 0.03 0.03 84 1011.9
20260507195817 56 133 2.0 2.0 0.02 0.03 0.03 83 1012.1
20260507195315 56 187 2.0 2.0 0.00 0.02 0.02 82 1012.3
20260507194812 56 128 2.0 2.0 0.00 0.02 0.02 79 1012.5
20260507194308 56 140 2.0 2.0 0.00 0.02 0.02 79 1012.3
20260507193804 56 147 2.0 2.0 0.00 0.02 0.02 80 1012.0
20260507193301 56 140 2.0 3.0 0.00 0.02 0.02 76 1012.2
20260507192757 57 157 2.0 3.0 0.00 0.02 0.02 77 1012.3
20260507192254 57 136 2.0 4.0 0.00 0.02 0.02 74 1012.1
20260507191750 57 152 2.0 3.0 0.00 0.02 0.02 73 1012.1
20260507191247 57 154 2.0 3.0 0.00 0.02 0.02 71 1012.5
20260507190744 57 143 1.0 2.0 0.00 0.02 0.02 72 1012.5
20260507190243 57 154 3.0 3.0 0.00 0.02 0.02 71 1012.1
20260507185741 57 208 3.0 3.0 0.00 0.02 0.02 71 1012.4
20260507185237 57 83 1.0 3.0 0.00 0.02 0.02 72 1012.2
20260507184735 57 169 2.0 3.0 0.00 0.02 0.02 71 1012.4
20260507184232 57 77 0.0 3.0 0.00 0.02 0.02 71 1012.5
20260507183723 57 140 1.0 3.0 0.00 0.02 0.02 72 1012.4
20260507183220 57 146 1.0 3.0 0.00 0.02 0.02 72 1012.3
20260507182718 57 216 1.0 3.0 0.00 0.02 0.02 71 1012.4
20260507182212 57 75 1.0 4.0 0.00 0.02 0.02 72 1012.4
20260507181710 57 104 3.0 3.0 0.00 0.02 0.02 73 1012.6
20260507181206 57 175 1.0 3.0 0.00 0.02 0.02 72 1012.5
20260507180702 57 141 0.0 3.0 0.00 0.02 0.02 72 1012.4
20260507180200 57 141 2.0 3.0 0.00 0.02 0.02 73 1012.3
20260507175655 57 148 2.0 3.0 0.00 0.02 0.02 73 1012.5
20260507175153 57 238 3.0 3.0 0.00 0.02 0.02 72 1012.4
20260507174650 57 113 2.0 2.0 0.00 0.02 0.02 73 1012.8
20260507174148 57 163 2.0 4.0 0.00 0.02 0.02 71 1012.6
20260507173645 57 200 1.0 2.0 0.00 0.02 0.02 71 1012.5
20260507173141 57 150 2.0 3.0 0.00 0.02 0.02 70 1013.0
20260507172637 57 125 2.0 2.0 0.00 0.02 0.02 71 1012.9
20260507172136 57 103 2.0 5.0 0.00 0.02 0.02 70 1012.8
20260507171635 57 155 2.0 3.0 0.00 0.02 0.02 72 1012.6
20260507171133 57 163 3.0 3.0 0.00 0.02 0.02 72 1013.0
20260507170630 56 200 3.0 4.0 0.00 0.02 0.02 74 1013.0
20260507170127 56 175 1.0 3.0 0.00 0.02 0.02 78 1013.2
20260507165622 56 97 2.0 3.0 0.00 0.02 0.02 79 1013.2
20260507165119 56 111 2.0 3.0 0.00 0.02 0.02 79 1013.3
20260507164615 56 137 1.0 3.0 0.00 0.02 0.02 79 1013.4
20260507164112 56 207 1.0 4.0 0.00 0.02 0.02 77 1013.4
20260507163609 56 165 2.0 4.0 0.00 0.02 0.02 79 1013.5
20260507163107 56 139 1.0 3.0 0.00 0.02 0.02 81 1013.5
20260507162602 56 117 3.0 3.0 0.00 0.02 0.02 84 1013.6
20260507162059 55 168 5.0 5.0 0.00 0.02 0.02 85 1013.4
20260507161555 55 192 4.0 4.0 0.00 0.02 0.02 83 1013.4
20260507161052 55 132 1.0 6.0 0.00 0.02 0.02 85 1013.8
20260507160548 55 167 2.0 4.0 0.00 0.02 0.02 87 1013.6
20260507160044 55 178 4.0 5.0 0.00 0.02 0.02 88 1013.8
20260507155540 55 216 3.0 4.0 0.00 0.02 0.02 88 1013.9
20260507155037 55 171 3.0 5.0 0.00 0.02 0.02 88 1013.8
20260507154534 55 138 2.0 2.0 0.00 0.02 0.02 87 1013.7
20260507154026 55 202 3.0 4.0 0.02 0.02 0.02 87 1013.5
20260507153522 56 134 2.0 4.0 0.05 0.02 0.02 85 1013.8
20260507153018 56 179 2.0 4.0 0.02 0.02 0.02 83 1013.7
20260507152513 56 142 2.0 5.0 0.00 0.02 0.02 80 1013.9
20260507152010 56 226 0.0 7.0 0.00 0.02 0.02 79 1013.8
20260507151507 56 140 2.0 3.0 0.00 0.02 0.02 80 1013.7
20260507151004 56 131 3.0 3.0 0.00 0.02 0.02 80 1013.3
20260507150501 56 219 2.0 6.0 0.00 0.02 0.02 79 1013.6
20260507145957 57 156 3.0 4.0 0.00 0.02 0.02 78 1013.5
20260507145453 57 171 2.0 5.0 0.00 0.02 0.02 76 1013.5
20260507144950 57 147 0.0 4.0 0.00 0.02 0.02 76 1013.9
20260507144447 57 147 2.0 3.0 0.00 0.02 0.02 76 1013.6
20260507143944 57 148 2.0 6.0 0.00 0.02 0.02 77 1013.4
20260507143442 57 119 0.0 4.0 0.00 0.02 0.02 77 1013.1
20260507142938 57 142 2.0 3.0 0.00 0.02 0.02 78 1013.6
20260507142434 57 150 2.0 2.0 0.00 0.02 0.02 80 1013.7
20260507141931 57 140 2.0 2.0 0.00 0.02 0.02 81 1013.7
20260507141427 57 191 1.0 4.0 0.00 0.02 0.02 80 1013.9
20260507140924 58 164 2.0 5.0 0.00 0.02 0.02 80 1013.7
20260507140420 58 170 3.0 4.0 0.00 0.02 0.02 79 1013.9
20260507135919 58 158 2.0 3.0 0.00 0.02 0.02 79 1013.7
20260507135415 58 159 4.0 6.0 0.00 0.02 0.02 79 1013.9
20260507134912 58 197 0.0 5.0 0.00 0.02 0.02 80 1013.8
20260507134408 58 174 2.0 4.0 0.00 0.02 0.02 80 1014.0
20260507133904 58 162 1.0 6.0 0.00 0.02 0.02 81 1013.8
20260507133400 58 205 2.0 6.0 0.00 0.02 0.02 81 1013.6
20260507132859 58 162 2.0 4.0 0.00 0.02 0.02 83 1013.7
20260507132355 58 166 3.0 5.0 0.00 0.02 0.02 83 1013.3
20260507131852 58 163 2.0 4.0 0.00 0.02 0.02 84 1013.6
20260507131349 57 156 3.0 3.0 0.00 0.02 0.02 83 1013.3
20260507130846 58 209 1.0 6.0 0.00 0.02 0.02 83 1013.6
20260507130343 58 146 2.0 5.0 0.00 0.02 0.02 83 1013.6
20260507125842 58 150 2.0 2.0 0.00 0.02 0.02 83 1013.4
20260507125339 58 214 3.0 5.0 0.00 0.02 0.02 81 1013.8
20260507124837 58 152 3.0 3.0 0.00 0.02 0.02 82 1013.6
20260507124332 58 165 2.0 7.0 0.00 0.02 0.02 83 1013.6
20260507123831 57 143 1.0 5.0 0.00 0.02 0.02 82 1013.8
20260507123328 57 169 1.0 4.0 0.00 0.02 0.02 83 1013.5
20260507122824 57 136 3.0 4.0 0.00 0.02 0.02 83 1013.7
20260507122319 57 176 4.0 4.0 0.00 0.02 0.02 83 1013.7
20260507121816 57 179 3.0 4.0 0.00 0.02 0.02 83 1013.6
20260507121312 57 172 5.0 5.0 0.00 0.02 0.02 83 1013.5
20260507120809 57 185 4.0 6.0 0.00 0.02 0.02 83 1013.6
20260507120305 57 191 2.0 3.0 0.00 0.02 0.02 83 1013.3
20260507115801 57 155 2.0 3.0 0.00 0.02 0.02 83 1013.2
20260507115256 57 163 3.0 3.0 0.00 0.02 0.02 83 1013.8
20260507114753 57 148 1.0 3.0 0.00 0.02 0.02 82 1013.6
20260507114250 57 215 2.0 2.0 0.00 0.02 0.02 82 1013.8
20260507113748 57 229 3.0 3.0 0.00 0.02 0.02 82 1013.4
20260507113244 57 153 2.0 2.0 0.00 0.02 0.02 82 1013.8
20260507112742 57 200 2.0 4.0 0.00 0.02 0.02 82 1013.4
20260507112238 57 175 2.0 3.0 0.00 0.02 0.02 82 1013.3
20260507111737 57 133 2.0 4.0 0.00 0.02 0.02 81 1012.9
20260507111233 57 166 2.0 3.0 0.00 0.02 0.02 81 1012.8
20260507110729 57 169 2.0 3.0 0.00 0.02 0.02 81 1013.0
20260507110226 57 178 2.0 3.0 0.00 0.02 0.02 81 1013.1
20260507105722 57 146 1.0 6.0 0.00 0.02 0.02 80 1013.2
20260507105219 57 170 2.0 5.0 0.00 0.02 0.02 81 1012.9
20260507104716 57 145 2.0 2.0 0.00 0.02 0.02 80 1012.8
20260507104213 57 175 2.0 6.0 0.00 0.02 0.02 79 1012.8
20260507103708 57 208 1.0 4.0 0.00 0.02 0.02 80 1012.8
20260507103205 57 163 2.0 4.0 0.00 0.02 0.02 80 1012.8
20260507102701 57 163 3.0 4.0 0.00 0.02 0.02 79 1012.8
20260507102158 57 168 2.0 4.0 0.00 0.02 0.02 80 1012.6
20260507101654 57 152 2.0 6.0 0.00 0.02 0.02 80 1012.2
20260507101149 57 169 1.0 6.0 0.00 0.02 0.02 81 1012.0
20260507100647 57 186 6.0 6.0 0.00 0.02 0.02 83 1012.3
20260507100145 57 166 2.0 3.0 0.00 0.02 0.02 84 1012.7
20260507095643 57 154 0.0 3.0 0.00 0.02 0.02 85 1012.7
20260507095139 57 171 2.0 9.0 0.00 0.02 0.02 86 1013.1
20260507094636 57 160 2.0 6.0 0.00 0.02 0.02 88 1012.9
20260507094132 57 149 2.0 4.0 0.00 0.02 0.02 88 1012.6
20260507093630 57 173 0.0 3.0 0.00 0.02 0.02 88 1012.7
20260507093129 57 171 2.0 4.0 0.00 0.02 0.02 88 1012.9
20260507092625 57 144 2.0 3.0 0.00 0.02 0.02 90 1012.9
20260507092121 57 156 2.0 3.0 0.00 0.02 0.02 89 1012.7
20260507091618 57 162 1.0 3.0 0.00 0.02 0.02 89 1012.5
20260507091114 57 100 2.0 4.0 0.00 0.02 0.02 90 1012.4
20260507090610 57 216 1.0 5.0 0.02 0.02 0.02 89 1012.3
20260507090108 58 186 3.0 5.0 0.02 0.02 0.02 90 1012.4
20260507085604 58 134 4.0 8.0 0.02 0.01 0.01 88 1012.5
20260507085101 58 158 2.0 10.0 0.05 0.01 0.01 87 1012.1
20260507084558 59 137 3.0 3.0 0.05 0.01 0.01 90 1012.4
20260507084055 59 156 2.0 5.0 0.02 0.00 0.00 89 1012.1
20260507083551 60 179 3.0 5.0 0.00 0.00 0.00 89 1012.0
20260507083048 60 161 5.0 8.0 0.00 0.00 0.00 88 1012.1
20260507082544 61 241 2.0 7.0 0.00 0.00 0.00 88 1012.1
20260507082041 62 199 2.0 8.0 0.00 0.00 0.00 88 1012.0
20260507081537 62 179 6.0 6.0 0.00 0.00 0.00 87 1012.2
20260507081034 64 293 3.0 6.0 0.00 0.00 0.00 87 1011.8
20260507080530 65 193 3.0 5.0 0.00 0.00 0.00 89 1011.8
20260507080027 66 160 2.0 5.0 0.00 0.00 0.00 92 1011.5
20260507075522 66 178 2.0 3.0 0.00 0.00 0.00 92 1011.3
20260507075019 66 167 3.0 3.0 0.00 0.00 0.00 92 1011.2
20260507074515 66 179 2.0 3.0 0.00 0.00 0.00 92 1010.5
20260507074014 66 174 2.0 2.0 0.00 0.00 0.00 92 1011.0
20260507073510 66 170 2.0 3.0 0.00 0.00 0.00 92 1011.2
20260507073006 66 162 2.0 2.0 0.00 0.00 0.00 92 1011.1
20260507072504 66 162 2.0 3.0 0.00 0.00 0.00 92 1011.2
20260507072001 66 167 1.0 2.0 0.00 0.00 0.00 91 1011.2
20260507071458 66 189 2.0 2.0 0.00 0.00 0.00 91 1011.3
20260507070954 66 178 2.0 2.0 0.00 0.00 0.00 91 1011.3
20260507070452 67 174 3.0 3.0 0.00 0.00 0.00 91 1011.3
20260507065948 67 180 2.0 3.0 0.00 0.00 0.00 91 1011.1
20260507065445 67 167 2.0 2.0 0.00 0.00 0.00 90 1010.9
20260507064942 67 156 2.0 2.0 0.00 0.00 0.00 90 1010.9
20260507064440 67 166 2.0 3.0 0.00 0.00 0.00 89 1010.8
20260507063938 67 146 1.0 2.0 0.00 0.00 0.00 89 1010.4
20260507063434 67 144 1.0 2.0 0.00 0.00 0.00 89 1010.6
20260507062931 67 158 2.0 3.0 0.00 0.00 0.00 89 1010.4
20260507062429 67 157 2.0 2.0 0.00 0.00 0.00 88 1010.5
20260507061926 67 153 2.0 3.0 0.00 0.00 0.00 89 1010.1
20260507061424 67 161 2.0 2.0 0.00 0.00 0.00 89 1010.2
20260507060923 67 156 2.0 2.0 0.00 0.00 0.00 89 1010.2
20260507060419 67 158 2.0 2.0 0.00 0.00 0.00 88 1010.1
20260507055916 67 159 2.0 2.0 0.00 0.00 0.00 88 1010.1
20260507055410 67 165 2.0 2.0 0.00 0.00 0.00 88 1010.4
20260507054908 67 165 2.0 2.0 0.00 0.00 0.00 88 1010.2
20260507054404 67 158 2.0 2.0 0.00 0.00 0.00 88 1010.4
20260507053901 67 145 2.0 2.0 0.00 0.00 0.00 88 1010.3
20260507053353 67 119 1.0 2.0 0.00 0.00 0.00 88 1010.2
20260507052852 67 167 1.0 2.0 0.00 0.00 0.00 88 1010.4
20260507052348 67 161 1.0 2.0 0.00 0.00 0.00 88 1010.4
20260507051846 67 138 2.0 2.0 0.00 0.00 0.00 88 1010.6
20260507051343 67 151 1.0 2.0 0.00 0.00 0.00 88 1010.9
20260507050839 67 162 1.0 2.0 0.00 0.00 0.00 88 1010.8
20260507050336 67 170 2.0 2.0 0.00 0.00 0.00 88 1011.0